Regional Weather Roundup
Issued by NWS Cleveland, OH

Home | Current Version | Previous Version | Text Only | Print | Product List | Glossary Off
Versions: 1 2 3 4 5 6 7 8 9 10 11 12 13 14 15 16 17 18 19 20 21 22 23 24 25 26 27 28 29 30 31 32 33 34 35 36 37 38 39 40 41 42 43 44 45 46 47 48 49 50

928
ASUS41 KCLE 271212
RWRCLE
OHIO REGIONAL WEATHER ROUNDUP
NATIONAL WEATHER SERVICE WILMINGTON, OH
800 AM EDT MON MAR 27 2017

NOTE: "FAIR" INDICATES FEW OR NO CLOUDS BELOW 12,000 FEET WITH NO
SIGNIFICANT WEATHER AND/OR OBSTRUCTIONS TO VISIBILITY.

OHZ001>008-015>018-024>027-034-035-043-044-271300-
   NORTHWEST OHIO

CITY           SKY/WX    TMP DP  RH WIND       PRES   REMARKS
DEFIANCE       CLOUDY    51  47  86 SW8       29.93R
FINDLAY        CLOUDY    52  49  89 S8        29.92S
TOLEDO EXPRESS FAIR      50  50 100 SW6       29.91R
TOLEDO EXEC    CLOUDY    52  51  97 SW9       29.92R FOG
LIMA           CLOUDY    52  50  93 SW6       29.94R
$$

OHZ009>014-019>023-028>033-038-089-271300-
   NORTHEAST OHIO

CITY           SKY/WX    TMP DP  RH WIND       PRES   REMARKS
CLE-HOPKINS    CLOUDY    55  49  80 SW8       29.96R
CLE-LAKEFRONT  CLOUDY    55  50  83 SW14      29.92S
CUY CO. ARPT   CLOUDY    55  52  88 SW12      29.94R
LORAIN-ELYRIA  CLOUDY    52  48  86 SW9       29.94R
ASHTABULA      CLOUDY    54  52  93 SW7       29.93R
AKRON-CANTON   CLOUDY    53  50  89 SW8       29.96R
WOOSTER        CLOUDY    52  49  89 SW7       29.96S
MANSFIELD      CLOUDY    51  50  96 S7        29.95S
YOUNGSTOWN     CLOUDY    54  51  90 SW9       29.96R
$$

OHZ042-051>053-060>062-070>072-077>081-271300-
  SOUTHWEST OHIO

CITY           SKY/WX    TMP DP  RH WIND       PRES   REMARKS
CINC-COVINGTON FAIR      44  44 100 CALM      29.99R
CINC-LUNKEN    FOG       45  45 100 CALM      30.02R VSB<1/4
HAMILTON       FOG       42  42 100 CALM      30.01R VSB<1/4
DAYTON         CLOUDY    50  48  93 S7        29.98R
WRIGHT-PAT AFB CLOUDY    51  51 100 S6        29.98R
DAYTON GENERAL FAIR      46  46 100 S5        29.99R FOG
WILMINGTON     FOG       46  46 100 CALM      29.99R VSB<1/4
$$

OHZ036-037-039>041-045>050-054>059-063>069-073>076-082>088-271300-
  CENTRAL AND SOUTHEAST OHIO

CITY           SKY/WX    TMP DP  RH WIND       PRES   REMARKS
COLUMBUS       MOCLDY    50  49  96 S3        29.97S
OSU AIRPORT    CLOUDY    50  50 100 SW6       29.97S FOG
BOLTON FIELD   MOCLDY    46  46 100 SW6       29.99R FOG
RICKENBACK AFB FOG       47  47 100 S5        29.98S VSB 3/4
NEWARK         FOG       46  45  96 S3        29.98R VSB<1/4
MARION         CLOUDY    51  48  89 S8        29.96S FOG
LANCASTER      FOG       45  43  93 CALM      29.99S VSB<1/4
ZANESVILLE     FAIR      51  49  92 SW3       29.99R FOG
NEW PHILLY     MOCLDY    53  51  93 SW7       29.99R
$$




USA.gov is the U.S. government's official web portal to all federal, state and local government web resources and services.